sat.trackr.live / text

‹ back to catalog

HORS 5

NORAD 67283 · 2025-313AM

PAYLOAD ACTIVE UNKNOWN

§ Identity

Operator
Country
CIS
Launch date
2025-12-28
Launch site
VOSTO
Launch vehicle
Mass (kg)
RCS (m²)

External: N2YO · Heavens-Above · Gunter

§ Orbital elements

Epoch: 2026-09-20T22:06:26.371584Z

Period
94.42 min
Inclination
97.3860°
Eccentricity
0.0010493
Mean motion
15.25052349 rev/d
Perigee alt
483.4 km
Apogee alt
497.8 km
Semi-major
6,868.8 km
B*
2.1139e-4
RAAN
337.5099°
Arg perigee
29.7672°
Mean anomaly
330.4161°
Rev number
4,055

§ Raw data

HORS 51 67283U 25313AM  26263.92113856  .00005218  00000+0  21139-3 0  99982 67283  97.3860 337.5099 0010493  29.7672 330.4161 15.25052349 40555

JSON: /api/v1/satellites/67283 · /tle

For live sub-satellite position, see the globe view (requires WebGL).

§ Visibility from observer

Set your observer location to see the next 7 days of passes ≥ 10°. The values pass through the URL so the page stays shareable.

No JS? Fill the form by hand. The geolocation button needs JavaScript.